Погода в Слупске

Польша     54°28′00″N   17°01′52″E
темп.,
°C
ветер,
м/с
пор.,
м/с
влажн.,
%
обл.,
%
осадки,
мм/ч
давл.,
гПа
погр.,
м
1 марта, пн
пн101:00+2зюз349615 0.0 103382
04:00+1юз34955 0.0 103385
07:00+1зюз46964 0.0 1033130
10:00+5зюз578828 0.0 1033338
13:00+8з697619 0.0 1033435
16:00+6зюз610750 0.0 1032373
19:00+4зюз511830 0.0 1031283
22:00+3зюз511890 0.0 1031275
2 марта, вт
вт201:00+3зюз512910 0.0 1032286
04:00+4з612900 0.0 1030330
07:00+3з512910 0.0 1031326
10:00+6зсз6108286 0.0 1031444
13:00+7зсз567966 0.0 1032486
16:00+5сз348422 0.0 1032349
19:00+3сз119415 0.0 103322
22:00+2ююв12941 0.0 103322
3 марта, ср
ср301:00+2ююв23944 0.0 103335
04:00+1ю349467 0.0 103285
07:00+1ююз369533 0.0 1030139
10:00+5юз468223 0.0 1029305
13:00+8зюз357016 0.0 1027469
16:00+8з36680 0.0 1024477
19:00+4зюз23810 0.0 102143
22:00+4юз36880 0.0 1019115
4 марта, чт
чт401:00+4з4109216 0.0 1016276
04:00+2з499518 0.0 1014215
07:00+2з389446 0.0 1013243
10:00+3ссз3591100 0.0 1014388
13:00+4с3484100 0.1 1014462
16:00+2св6992100 0.1 1013473
19:000всв6986100 0.1 1014615
22:000всв3775100 0.0 1015670
5 марта, пт
пт501:000св3878100 0.1 1015554
04:00−1ссв377664 0.0 1015263
07:00−1ссв377059 0.1 1016290
10:00+2с67581 0.2 10181249
13:00+2ссв675034 0.6 10191616
16:00+1с685332 0.2 10211506
19:00−1с486138 0.5 1023925
22:00−1с495572 0.1 1025510